Regional Weather Roundup
Issued by NWS Sioux Falls, SD

Home | Current Version | Previous Version | Text Only | Print | Product List | Glossary Off
Versions: 1 2 3 4 5 6 7 8 9 10 11 12 13 14 15 16 17 18 19 20 21 22 23 24 25 26 27 28 29 30 31 32 33 34 35 36 37 38 39 40 41 42 43 44 45 46 47 48 49 50

000
ASUS43 KFSD 262110
RWRFSD

WEATHER ROUNDUP FOR SE SOUTH DAKOTA/SW MINNESOTA/NW IOWA
NATIONAL WEATHER SERVICE SIOUX FALLS SD
400 PM CDT SUN APR 26 2015

NOTE: "FAIR" INDICATES FEW OR NO CLOUDS BELOW 12,000 FEET WITH NO
SIGNIFICANT WEATHER AND OR OBSTRUCTIONS TO VISIBILITY.


SDZ038>040-050-052>070-262200-
SOUTHEAST SOUTH DAKOTA

CITY           SKY/WX    TMP DP  RH WIND       PRES   REMARKS
BROOKINGS      SUNNY     63  34  34 NE8       30.07S
CHAMBERLAIN    MOSUNNY   63  31  30 E12G21    30.04S
HURON          SUNNY     67  30  25 SE10      30.05S
MADISON        FAIR      63  32  31 NE12      30.06S
MITCHELL       SUNNY     65  34  31 SE8       30.05F
SIOUX FALLS    MOSUNNY   66  32  28 NE8       30.03F
WINNER         FAIR      63  36  36 E14G22    30.03S
YANKTON        SUNNY     64  34  32 E12       30.02S
$$

MNZ071-072-080-081-089-090-097-098-262200-
SOUTHWEST MINNESOTA

CITY           SKY/WX    TMP DP  RH WIND       PRES   REMARKS
FAIRMONT       SUNNY     64  30  27 N6        30.05S
JACKSON        SUNNY     64  25  22 NE13G18   30.05F
LUVERNE        SUNNY     64  30  27 E6        30.05S
MARSHALL       SUNNY     64  27  24 N9        30.07S
MONTEVIDEO     SUNNY     66  27  22 SE7       30.09F
REDWOOD FALLS  SUNNY     65  20  17 N9        30.07F
TRACY          SUNNY     66  28  24 NE9G18    30.07S
WORTHINGTON    SUNNY     63  28  27 NE10      30.05F
$$

IAZ001>003-012>014-020>022-031-032-NEZ013-014-SDZ071-262200-
NORTHWEST IOWA

CITY           SKY/WX    TMP DP  RH WIND       PRES   REMARKS
CHEROKEE       SUNNY     65  33  30 NE9       30.03F
DENISON        SUNNY     61  36  39 E13G21    30.01F
ESTHERVILLE    SUNNY     63  33  32 NE7       30.04F
LE MARS        SUNNY     66  32  28 E7        30.03F
ORANGE CITY    SUNNY     64  32  29 E7        30.03F
SHELDON        SUNNY     64  30  27 E9        30.02F
SIOUX CITY     SUNNY     66  31  27 E14G20    30.02F
SPENCER        SUNNY     67  32  27 N7        30.04F
STORM LAKE     SUNNY     63  30  29 NE13      30.04F
$$

ABBREVIATIONS USED IN REMARKS
   TC - TEMPERATURE IN CELSIUS
  WCI - WIND CHILL INDEX
   HX - HEAT INDEX
  VSB - VISIBILITY




USA.gov is the U.S. government's official web portal to all federal, state and local government web resources and services.